Onweer radar Meer informatie blitzortung!


Regen radar Meer informatie rain snow radar


Bezoek onze andere website:

Template documentation
and downloads

And another site



15 daagse weersverwachting Almere Stad (NL)

  • Overzicht
  • Per uur
  • 15 dagen
  • Extra
  • Vergelijk
  • Kaarten
  • Dagkaart
  • Meer »
  • Info
  • Statistieken
  • Directe link
    Temp 6h Neerslag Wind  
 05:56     21:36    Daglengte: 15:40 Vandaag
20:00
19°
 
8
 05:57     21:35    Daglengte: 15:38 Morgen
02:00
16°
 
9
08:00
15°
3.8 mm
8
14:00
19°
 
9
20:00
19°
 
8
 05:59     21:33    Daglengte: 15:34 Vrijdag 30 Jul
02:00
16°
 
6
08:00
16°
 
4
14:00
20°
1.0 mm
5
20:00
18°
6.1 mm
7
 06:01     21:31    Daglengte: 15:30 Zaterdag 31 Jul
02:00
16°
9.8 mm
8
08:00
17°
10.0 mm
6
14:00
19°
12.6 mm
7
Locatie info
Region: Flevoland
Latitude: 52.3702°N
Longitude: 5.2141°E
-3 masl
Temp/Neerslag /Baro Onweer/Dauwpunt
    Temp Baro 1h Neerslag Dauwpunt Wind UV Bewolking  
 05:56     21:36    Daglengte: 15:40 Vandaag
19:00
19°
1008.2 hPa
48%
13.1°
8
Windvlaag: 9.5 m/s
20%
20:00
19°
1008.0 hPa
21%
11.5°
8
Windvlaag: 9.6 m/s
13%
21:00
18°
1007.9 hPa
14%
11.1°
7
Windvlaag: 10 m/s
11%
22:00
18°
1007.8 hPa
24%
11.6°
7
Windvlaag: 10.6 m/s
11%
23:00
17°
1007.7 hPa
23%
11.8°
7
Windvlaag: 11.3 m/s
1%
 05:57     21:35    Daglengte: 15:38 Morgen
00:00
17°
1007.4 hPa
23%
10.9°
8
Windvlaag: 11.7 m/s
5%
01:00
16°
1007.2 hPa
25%
10.6°
8
Windvlaag: 12.5 m/s
8%
02:00
16°
1006.8 hPa
28%
10.6°
9
Windvlaag: 12.5 m/s
13%
03:00
16°
1006.5 hPa
68%
10.8°
9
Windvlaag: 12.8 m/s
13%
04:00
15°
1006.6 hPa 0.8 mm
77%
12.3°
8
Windvlaag: 12.3 m/s
52%
05:00
15°
1006.6 hPa 0.9 mm
81%
12.8°
7
Windvlaag: 11.5 m/s
13%
06:00
15°
1006.9 hPa 0.8 mm
65%
13.2°
7
Windvlaag: 11.2 m/s
13%
07:00
15°
1007.2 hPa 0.7 mm
62%
13.1°
7
Windvlaag: 10.6 m/s
17%
08:00
15°
1007.4 hPa 0.6 mm
76%
13.0°
8
Windvlaag: 10.5 m/s
43%
09:00
16°
1007.7 hPa
74%
12.8°
8
Windvlaag: 10.2 m/s
13%
10:00
17°
1008.1 hPa
60%
11.3°
9
Windvlaag: 9.5 m/s
21%
11:00
18°
1008.7 hPa
22%
10.4°
10
Windvlaag: 9.6 m/s
23%
12:00
18°
1009.1 hPa
22%
10.7°
10
Windvlaag: 8.6 m/s
9%
13:00
18°
1009.4 hPa
22%
10.9°
10
Windvlaag: 8 m/s
29%
14:00
19°
1009.9 hPa
59%
10.4°
9
Windvlaag: 7.7 m/s
28%
15:00
19°
1010.0 hPa
58%
10.2°
9
Windvlaag: 8.2 m/s
20%
16:00
19°
1009.9 hPa
60%
10.3°
9
Windvlaag: 8 m/s
4%
17:00
19°
1010.1 hPa
60%
10.9°
9
Windvlaag: 7.9 m/s
7%
18:00
19°
1010.1 hPa
22%
11.0°
9
Windvlaag: 7.5 m/s
5%
19:00
19°
1010.2 hPa
19%
11.1°
8
Windvlaag: 7 m/s
5%
20:00
19°
1010.0 hPa
14%
10.9°
8
Windvlaag: 7.2 m/s
5%
21:00
18°
1009.9 hPa
16%
11.6°
7
Windvlaag: 7.5 m/s
8%
22:00
17°
1009.9 hPa
17%
11.9°
7
Windvlaag: 8.3 m/s
9%
23:00
17°
1009.9 hPa
15%
11.7°
6
Windvlaag: 8.8 m/s
35%
 05:59     21:33    Daglengte: 15:34 Vrijdag 30 Jul
00:00
17°
1009.8 hPa
14%
11.6°
6
Windvlaag: 9 m/s
40%
01:00
16°
1009.7 hPa
14%
11.8°
6
Windvlaag: 9.2 m/s
50%
02:00
16°
1009.4 hPa
14%
12.0°
6
Windvlaag: 9.1 m/s
7%
03:00
16°
1009.1 hPa
14%
12.0°
6
Windvlaag: 8.8 m/s
22%
04:00
15°
1009.0 hPa
15%
11.8°
6
Windvlaag: 8.3 m/s
8%
05:00
15°
1008.6 hPa
14%
11.8°
6
Windvlaag: 8.2 m/s
30%
06:00
15°
1008.5 hPa
14%
11.8°
5
Windvlaag: 8 m/s
73%
07:00
15°
1008.5 hPa
14%
11.9°
5
Windvlaag: 7.2 m/s
26%
08:00
16°
1008.5 hPa
15%
12.1°
4
Windvlaag: 7.7 m/s
71%
09:00
16°
1008.3 hPa
18%
12.0°
4
Windvlaag: 6.8 m/s
85%
10:00
17°
1008.1 hPa 0.5 mm
80%
10.7°
4
Windvlaag: 6.7 m/s
86%
11:00
17°
1007.7 hPa
65%
10.3°
4
Windvlaag: 5.3 m/s
86%
12:00
18°
1007.3 hPa 0.5 mm
71%
10.6°
5
Windvlaag: 6.1 m/s
84%
13:00
19°
1006.6 hPa
73%
11.6°
5
Windvlaag: 7.7 m/s
66%
14:00
20°
1005.9 hPa
64%
13.0°
5
Windvlaag: 10.5 m/s
74%
15:00
20°
1005.4 hPa
56%
12.9°
6
Windvlaag: 10.8 m/s
58%
16:00
20°
1005.0 hPa
64%
11.4°
6
Windvlaag: 10.9 m/s
20%
17:00
20°
1002.5 hPa
76%
13.9°
5
Windvlaag: 7.8 m/s
80%
18:00
21°
1002.0 hPa 1.2 mm
79%
13.7°
5
Windvlaag: 10.1 m/s
63%
19:00
19°
1001.9 hPa 1.7 mm
76%
15.4°
6
Windvlaag: 10.1 m/s
75%
20:00
18°
1001.3 hPa 3.2 mm
75%
12.9°
7
Windvlaag: 11.4 m/s
92%
21:00
18°
1000.8 hPa 1.5 mm
85%
14.2°
8
Windvlaag: 13.5 m/s
87%
22:00
17°
1001.0 hPa 2.2 mm
93%
15.0°
9
Windvlaag: 10.4 m/s
64%
23:00
17°
1001.6 hPa 2.1 mm
92%
14.9°
9
Windvlaag: 5 m/s
83%
 06:01     21:31    Daglengte: 15:30 Zaterdag 31 Jul
00:00
17°
1001.4 hPa
100%
15.2°
9
Windvlaag: 4 m/s
69%
01:00
16°
1002.1 hPa 1.9 mm
100%
14.9°
8
Windvlaag: 1.7 m/s
83%
02:00
16°
1002.4 hPa 2.1 mm
100%
14.6°
8
Windvlaag: 1.8 m/s
75%
03:00
16°
1002.7 hPa 2.1 mm
88%
14.2°
8
Windvlaag: 2.8 m/s
74%
04:00
16°
1003.0 hPa 2.1 mm
94%
15.1°
7
Windvlaag: 5.2 m/s
85%
05:00
16°
1003.3 hPa
94%
14.5°
6
Windvlaag: 6 m/s
62%
06:00
16°
1003.7 hPa 1.4 mm
100%
14.3°
6
Windvlaag: 6.5 m/s
72%
07:00
16°
1004.4 hPa 1.8 mm
95%
14.4°
6
Windvlaag: 6.6 m/s
83%
08:00
17°
1005.0 hPa 2.7 mm
85%
15.1°
6
Windvlaag: 6.6 m/s
64%
09:00
17°
1005.4 hPa 2.4 mm
75%
14.1°
6
Windvlaag: 5.6 m/s
63%
10:00
18°
1005.5 hPa 2.9 mm
77%
13.6°
7
Windvlaag: 5.5 m/s
79%
11:00
18°
1005.9 hPa 1.6 mm
89%
13.1°
7
Windvlaag: 5 m/s
43%
12:00
18°
1006.3 hPa 1.9 mm
100%
12.9°
7
Windvlaag: 5 m/s
89%
13:00
18°
1006.7 hPa 2.0 mm
100%
12.2°
7
Windvlaag: 4.9 m/s
83%
14:00
19°
1007.0 hPa 1.8 mm
100%
11.9°
7
Windvlaag: 4.7 m/s
68%
15:00
18°
1007.1 hPa 2.8 mm
100%
12.0°
6
Windvlaag: 9.1 m/s
78%
16:00
19°
1007.3 hPa 2.9 mm
100%
11.9°
6
Windvlaag: 8.8 m/s
66%
17:00
18°
1007.4 hPa 2.7 mm
100%
12.3°
6
Windvlaag: 8.7 m/s
69%
18:00
18°
1007.5 hPa 2.5 mm
100%
12.7°
5
Windvlaag: 8.3 m/s
43%
Temp/Neerslag /Baro Onweer/Dauwpunt
    Temp Baro Neerslag Dauwpunt Wind Bewolking  
 05:56     21:36    Daglengte: 15:40 Vandaag
20:00
19°
1008.0 hPa   11.5°
8
13%
23:00
17°
1007.7 hPa   11.8°
7
1%
 05:57     21:35    Daglengte: 15:38 Morgen
02:00
16°
1006.8 hPa   10.6°
9
13%
05:00
15°
1006.6 hPa 1.7 mm 12.8°
7
13%
08:00
15°
1007.4 hPa 2.2 mm 13.0°
8
43%
11:00
18°
1008.7 hPa   10.4°
10
23%
14:00
19°
1009.9 hPa   10.4°
9
28%
17:00
19°
1010.1 hPa   10.9°
9
7%
20:00
19°
1010.0 hPa   10.9°
8
5%
23:00
17°
1009.9 hPa   11.7°
6
35%
 05:59     21:33    Daglengte: 15:34 Vrijdag 30 Jul
02:00
16°
1009.4 hPa   12.0°
6
7%
05:00
15°
1008.6 hPa   11.8°
6
30%
08:00
16°
1008.5 hPa   12.1°
4
71%
11:00
17°
1007.7 hPa 0.5 mm 10.3°
4
86%
14:00
20°
1005.9 hPa 0.5 mm 13.0°
5
74%
17:00
20°
1002.5 hPa   13.9°
5
80%
20:00
18°
1001.3 hPa 6.1 mm 12.9°
7
92%
23:00
17°
1001.6 hPa 5.8 mm 14.9°
9
83%
 06:01     21:31    Daglengte: 15:30 Zaterdag 31 Jul
02:00
16°
1002.4 hPa 4.0 mm 14.6°
8
75%
05:00
16°
1003.3 hPa 4.2 mm 14.5°
6
62%
08:00
17°
1005.0 hPa 5.9 mm 15.1°
6
64%
11:00
18°
1005.9 hPa 6.9 mm 13.1°
7
43%
14:00
19°
1007.0 hPa 5.7 mm 11.9°
7
68%
17:00
18°
1007.4 hPa 8.4 mm 12.3°
6
69%
20:00
18°
1007.5 hPa 7.1 mm 12.3°
5
18%
23:00
15°
1008.6 hPa 9.7 mm 13.8°
4
0%
 06:02     21:30    Daglengte: 15:28 Zondag 01 Aug
02:00
14°
1008.3 hPa 10.0 mm 13.5°
4
0%
05:00
13°
1007.4 hPa 10.5 mm 13.1°
5
0%
08:00
14°
1007.2 hPa 10.6 mm 12.7°
5
0%
11:00
18°
1007.0 hPa 10.8 mm 12.7°
4
1%
14:00
18°
1006.9 hPa 13.6 mm 15.4°
4
1%
17:00
17°
1008.5 hPa 16.9 mm 14.8°
7
1%
20:00
17°
1009.8 hPa 16.9 mm 10.9°
5
1%
23:00
14°
1011.2 hPa 17.0 mm 12.2°
4
0%
 06:04     21:28    Daglengte: 15:24 Maandag 02 Aug
02:00
13°
1011.9 hPa 17.0 mm 10.7°
4
0%
05:00
13°
1012.0 hPa 17.0 mm 11.0°
4
0%
08:00
14°
1013.0 hPa 17.3 mm 11.4°
4
0%
11:00
18°
1013.8 hPa 17.4 mm 7.6°
5
1%
14:00
18°
1014.7 hPa 17.4 mm 6.2°
5
1%
17:00
18°
1014.6 hPa 17.4 mm 6.3°
4
0%
20:00
17°
1015.0 hPa 17.5 mm 9.3°
4
0%
23:00
13°
1016.0 hPa 17.5 mm 10.4°
3
0%
 06:05     21:26    Daglengte: 15:21 Dinsdag 03 Aug
02:00
12°
1016.3 hPa 17.5 mm 10.6°
2
0%
05:00
12°
1015.9 hPa 17.5 mm 10.2°
1
0%
08:00
14°
1016.5 hPa 17.5 mm 9.7°
2
0%
11:00
17°
1016.6 hPa 17.5 mm 7.5°
2
1%
14:00
19°
1016.0 hPa 17.5 mm 9.1°
2
1%
17:00
20°
1015.2 hPa 17.5 mm 10.3°
2
1%
20:00
19°
1015.3 hPa 17.5 mm 11.9°
2
1%
23:00
15°
1016.2 hPa 17.5 mm 10.7°
1
0%
 06:07     21:24    Daglengte: 15:17 Woensdag 04 Aug
02:00
16°
1016.4 hPa 17.5 mm 10.0°
2
0%
05:00
14°
1015.2 hPa 17.5 mm 10.6°
3
1%
08:00
16°
1015.4 hPa 17.5 mm 11.5°
3
1%
11:00
20°
1015.6 hPa 17.5 mm 9.1°
5
1%
14:00
22°
1014.8 hPa 17.5 mm 10.3°
4
1%
17:00
22°
1014.6 hPa   11.4°
5
1%
20:00
20°
1013.9 hPa 35.1 mm 14.4°
2
1%
 06:08     21:23    Daglengte: 15:15 Donderdag 05 Aug
02:00
16°
1013.1 hPa 35.6 mm 14.1°
3
1%
08:00
17°
1010.2 hPa 35.7 mm 13.3°
3
1%
14:00
18°
1008.6 hPa 36.0 mm 15.3°
4
1%
20:00
16°
1007.3 hPa 38.8 mm 15.3°
6
1%
 06:10     21:21    Daglengte: 15:11 Vrijdag 06 Aug
02:00
14°
1007.1 hPa 39.9 mm 14.0°
6
1%
08:00
14°
1007.6 hPa 40.0 mm 13.4°
6
1%
14:00
19°
1008.9 hPa 42.2 mm 10.4°
8
0%
20:00
18°
1009.6 hPa 43.9 mm 10.4°
6
0%
 06:12     21:19    Daglengte: 15:07 Zaterdag 07 Aug
02:00
14°
1010.3 hPa 43.9 mm 11.8°
6
0%
08:00
16°
1007.8 hPa 0.8 mm 13.2°
4
63%
14:00
20°
1009.8 hPa 1.6 mm 12.8°
5
59%
20:00
18°
1010.8 hPa 0.7 mm 12.9°
3
61%
 06:13     21:17    Daglengte: 15:04 Zondag 08 Aug
02:00
15°
1011.9 hPa 0.5 mm 12.5°
3
51%
08:00
16°
1012.3 hPa 0.6 mm 12.9°
3
55%
14:00
21°
1013.7 hPa 0.7 mm 12.6°
5
55%
20:00
19°
1013.7 hPa 0.5 mm 13.4°
3
59%
 06:15     21:15    Daglengte: 15:00 Maandag 09 Aug
02:00
16°
1014.1 hPa 0.6 mm 13.0°
4
58%
08:00
16°
1014.3 hPa 0.9 mm 13.0°
4
55%
14:00
21°
1015.3 hPa 0.4 mm 12.5°
5
47%
20:00
19°
1014.7 hPa 0.6 mm 13.3°
4
53%
 06:17     21:13    Daglengte: 14:56 Dinsdag 10 Aug
02:00
16°
1014.9 hPa 0.6 mm 12.7°
3
58%
08:00
16°
1015.0 hPa 0.6 mm 13.2°
4
49%
14:00
20°
1016.3 hPa 0.8 mm 13.1°
5
52%
20:00
18°
1016.4 hPa 0.7 mm 12.8°
4
53%
 06:18     21:11    Daglengte: 14:53 Woensdag 11 Aug
02:00
15°
1016.9 hPa 0.3 mm 12.4°
3
55%
08:00
16°
1017.2 hPa 0.5 mm 12.8°
3
56%
14:00
20°
1018.1 hPa 0.8 mm 12.3°
5
56%
20:00
18°
1018.1 hPa 0.4 mm 11.9°
4
51%
 06:20     21:09    Daglengte: 14:49 Donderdag 12 Aug
02:00
15°
1018.3 hPa 0.1 mm 11.9°
3
54%
08:00
15°
1017.7 hPa 0.3 mm 12.4°
3
59%
14:00
20°
1018.0 hPa 0.5 mm 12.0°
4
57%
  CAPE Lifted Index Hail Supercell Tornado SRH 3km CL BTM PRES CL TOP PRES Swiss DWD icon SMHI TS
 05:56     21:36    Daglengte: 15:40 Vandaag
19:00 220 J/kg 0.4 K 0 % 0 % 0 % 0 m²/s² 0 0 3.88 1
20:00 139 J/kg 2.2 K 0 % 0 % 0 % 0 m²/s² 0 0 5.68 1
21:00 96 J/kg 3.6 K 0 % 0 % 0 % 0 m²/s² 0 0 7.77 1
22:00 55 J/kg 4.2 K 0 % 0 % 0 % 0 m²/s² 0 0 9.9 1
23:00 12 J/kg 4.8 K 0 % 0 % 0 % 0 m²/s² 0 0 9.78 2
 05:57     21:35    Daglengte: 15:38 Morgen
00:00 0 J/kg 4.9 K 0 % 0 % 0 % 0 m²/s² 0 0 9.73 1
01:00 0 J/kg 3.9 K 0 % 0 % 0 % 0 m²/s² 0 0 8.46 2
02:00 47 J/kg 3.4 K 0 % 0 % 0 % 0 m²/s² 0 0 7.51 2
03:00 185 J/kg 3.3 K 0 % 0 % 0 % 0 m²/s² 0 0 7.29 3
04:00 197 J/kg 4.3 K 0 % 0 % 0 % 0 m²/s² 0 0 8.62 80
05:00 187 J/kg 5.9 K 0 % 0 % 0 % 0 m²/s² 0 0 10.22 3
06:00 179 J/kg 6.7 K 0 % 0 % 0 % 0 m²/s² 0 0 10.3 2
07:00 164 J/kg 7.2 K 0 % 0 % 0 % 0 m²/s² 0 0 12.78 3
08:00 216 J/kg 6.7 K 0 % 0 % 0 % 0 m²/s² 0 0 12.46 3
09:00 174 J/kg 7.0 K 0 % 0 % 0 % 0 m²/s² 0 0 13.15 2
10:00 118 J/kg 7.0 K 0 % 0 % 0 % 0 m²/s² 0 0 13.33 3
11:00 84 J/kg 7.3 K 0 % 0 % 0 % 0 m²/s² 0 0 13.63 3
12:00 37 J/kg 8.3 K 0 % 0 % 0 % 0 m²/s² 0 0 14.87 2
13:00 26 J/kg 8.4 K 0 % 0 % 0 % 0 m²/s² 0 0 14.97 2
14:00 6 J/kg 8.7 K 0 % 0 % 0 % 0 m²/s² 0 0 15.27 2
15:00 0 J/kg 9.0 K 0 % 0 % 0 % 0 m²/s² 0 0 15.21 1
16:00 9 J/kg 8.0 K 0 % 0 % 0 % 0 m²/s² 0 0 14.03 2
17:00 20 J/kg 7.2 K 0 % 0 % 0 % 0 m²/s² 0 0 12.9 1
18:00 19 J/kg 6.9 K 0 % 0 % 0 % 0 m²/s² 0 0 12.3 1
19:00 15 J/kg 7.0 K 0 % 0 % 0 % 0 m²/s² 0 0 12.88 1
20:00 2 J/kg 7.2 K 0 % 0 % 0 % 0 m²/s² 0 0 13.62 0
21:00 2 J/kg 6.6 K 0 % 0 % 0 % 0 m²/s² 0 0 13.05 0
22:00 0 J/kg 6.5 K 0 % 0 % 0 % 0 m²/s² 0 0 12.77 0
23:00 0 J/kg 6.8 K 0 % 0 % 0 % 0 m²/s² 0 0 12.92 3
 05:59     21:33    Daglengte: 15:34 Vrijdag 30 Jul
00:00 0 J/kg 6.6 K 0 % 0 % 0 % 0 m²/s² 0 0 13.08 3
01:00 0 J/kg 5.9 K 0 % 0 % 0 % 0 m²/s² 0 0 9.62 3
02:00 0 J/kg 5.2 K 0 % 0 % 0 % 0 m²/s² 0 0 8.65 2
03:00 0 J/kg 5.5 K 0 % 0 % 0 % 0 m²/s² 0 0 8.62 2
04:00 0 J/kg 5.5 K 0 % 0 % 0 % 0 m²/s² 0 0 7.39 2
05:00 0 J/kg 6.1 K 0 % 0 % 0 % 0 m²/s² 0 0 7.69 3
06:00 0 J/kg 6.3 K 0 % 0 % 0 % 0 m²/s² 0 0 7.71 3
07:00 0 J/kg 6.3 K 0 % 0 % 0 % 0 m²/s² 0 0 7.44 2
08:00 0 J/kg 5.5 K 0 % 0 % 0 % 0 m²/s² 0 0 6.16 3
09:00 0 J/kg 4.4 K 0 % 0 % 0 % 0 m²/s² 0 0 4.82 3
10:00 0 J/kg 3.5 K 0 % 0 % 0 % 0 m²/s² 0 0 3.89 80
11:00 0 J/kg 3.2 K 0 % 0 % 0 % 0 m²/s² 0 0 3.23 3
12:00 0 J/kg 2.8 K 0 % 0 % 0 % 0 m²/s² 0 0 3.1 3
13:00 0 J/kg 2.4 K 0 % 0 % 0 % 0 m²/s² 0 0 2.97 3
14:00 24 J/kg 0.6 K 0 % 0 % 0 % 0 m²/s² 0 0 0.93 3
15:00 42 J/kg 0.0 K 0 % 0 % 0 % 0 m²/s² 0 0 3.18 3
16:00 214 J/kg -0.7 K 0 % 0 % 0 % 0 m²/s² 0 0 6.17 3
17:00 391 J/kg -1.2 K 0 % 0 % 0 % 0 m²/s² 0 0 0.84 3
18:00 359 J/kg -0.4 K 0 % 0 % 0 % 0 m²/s² 0 0 0.71 2
19:00 114 J/kg 0.2 K 0 % 0 % 0 % 0 m²/s² 0 0 0.62 3
20:00 351 J/kg -1.7 K 0 % 0 % 0 % 0 m²/s² 0 0 -0.89 2
21:00 267 J/kg -2.0 K 0 % 0 % 0 % 0 m²/s² 0 0 -0.29 3
22:00 340 J/kg -1.5 K 0 % 0 % 0 % 0 m²/s² 0 0 -0.9 3
23:00 278 J/kg -1.0 K 0 % 0 % 0 % 0 m²/s² 0 0 0.32 3
 06:01     21:31    Daglengte: 15:30 Zaterdag 31 Jul
00:00 393 J/kg -1.3 K 0 % 0 % 0 % 0 m²/s² 0 0 0.23 3
01:00 370 J/kg -1.1 K 0 % 0 % 0 % 0 m²/s² 0 0 0.85 80
02:00 324 J/kg -1.1 K 0 % 0 % 0 % 0 m²/s² 0 0 0.43 80
03:00 145 J/kg -0.6 K 0 % 0 % 0 % 0 m²/s² 0 0 1.35 3
04:00 219 J/kg -1.0 K 0 % 0 % 0 % 0 m²/s² 0 0 0.83 3
05:00 134 J/kg 0.0 K 0 % 0 % 0 % 0 m²/s² 0 0 0.87 3
06:00 45 J/kg 0.4 K 0 % 0 % 0 % 0 m²/s² 0 0 1.18 3
07:00 95 J/kg -0.1 K 0 % 0 % 0 % 0 m²/s² 0 0 0.14 3
08:00 412 J/kg -0.9 K 0 % 0 % 0 % 0 m²/s² 0 0 -0.69 2
09:00 176 J/kg 0.1 K 0 % 0 % 0 % 0 m²/s² 0 0 0.61 2
10:00 235 J/kg -0.4 K 0 % 0 % 0 % 0 m²/s² 0 0 0.14 2
11:00 244 J/kg -0.7 K 0 % 0 % 0 % 0 m²/s² 0 0 0.23 3
12:00 239 J/kg -0.9 K 0 % 0 % 0 % 0 m²/s² 0 0 0.33 80
13:00 215 J/kg -0.9 K 0 % 0 % 0 % 0 m²/s² 0 0 0.21 80
14:00 241 J/kg -0.9 K 0 % 0 % 0 % 0 m²/s² 0 0 0.03 80
15:00 248 J/kg -0.9 K 0 % 0 % 0 % 0 m²/s² 0 0 0.06 80
16:00 266 J/kg -1.2 K 0 % 0 % 0 % 0 m²/s² 0 0 -0.03 80
17:00 287 J/kg -1.2 K 0 % 0 % 0 % 0 m²/s² 0 0 0.03 80
18:00 245 J/kg -1.0 K 0 % 0 % 0 % 0 m²/s² 0 0 0.11 80
Temp Baro Wind Neerslag
  EWN Forecast EWN WRFDA DWD ICON FMI HIRLAM MET Norway GFS
 05:56     21:36    Daglengte: 15:40 Vandaag
20:00 19.1° 1008.0 hPa 7.9 m/s 0.0 mm 20.0° 1007.4 hPa 6.6 m/s 2.8 mm 19.2° 1008.1 hPa 6.9 m/s 0.1 mm 19.1° 1008.2 hPa 8.1 m/s 0.0 mm 18.3° 1007.6 hPa 8.3 m/s
23:00 17.2° 1007.7 hPa 7.3 m/s 0.0 mm 15.6° 1006.8 hPa 5.3 m/s 4.3 mm 17.4° 1007.9 hPa 5.8 m/s 0.0 mm 17.8° 1007.8 hPa 7.5 m/s 0.0 mm 16.7° 1007.7 hPa 8.5 m/s
 05:57     21:35    Daglengte: 15:38 Morgen
02:00 16.0° 1006.8 hPa 8.5 m/s 0.0 mm 14.3° 1006.0 hPa 6.1 m/s 4.3 mm 16.1° 1007.4 hPa 6.4 m/s 0.0 mm 17.3° 1006.4 hPa 9.0 m/s 0.0 mm 15.4° 1007.5 hPa 8.8 m/s
05:00 14.8° 1006.6 hPa 7.1 m/s 1.7 mm 13.5° 1006.0 hPa 5.2 m/s 4.5 mm 15.2° 1007.5 hPa 6.2 m/s 1.3 mm 14.8° 1006.4 hPa 7.3 m/s 0.0 mm 14.2° 1007.7 hPa 7.0 m/s
08:00 15.2° 1007.4 hPa 7.7 m/s 2.2 mm 15.9° 1007.0 hPa 6.7 m/s 4.6 mm 15.4° 1008.0 hPa 6.3 m/s 0.6 mm 14.7° 1007.3 hPa 7.9 m/s 0.0 mm 15.2° 1008.3 hPa 7.6 m/s
11:00 17.7° 1008.7 hPa 9.8 m/s 0.0 mm 18.7° 1008.0 hPa 8.5 m/s 4.7 mm 17.6° 1009.3 hPa 8.0 m/s 0.4 mm 17.6° 1008.7 hPa 10.2 m/s 0.0 mm 17.9° 1009.2 hPa 8.9 m/s
14:00 18.8° 1009.9 hPa 9.4 m/s 0.0 mm 20.0° 1008.5 hPa 9.0 m/s 4.7 mm 18.7° 1010.1 hPa 8.0 m/s 0.1 mm 18.9° 1010.1 hPa 9.6 m/s 0.0 mm 19.3° 1009.8 hPa 9.3 m/s
17:00 19.1° 1010.1 hPa 9.1 m/s 0.0 mm 20.0° 1008.6 hPa 8.3 m/s 4.7 mm 19.2° 1010.3 hPa 7.1 m/s 0.4 mm 19.0° 1010.5 hPa 9.3 m/s 0.0 mm 19.4° 1010.1 hPa 8.4 m/s
20:00 18.6° 1010.0 hPa 7.7 m/s 0.0 mm 18.8° 1008.6 hPa 6.8 m/s 4.7 mm 19.0° 1010.1 hPa 5.7 m/s 0.0 mm 18.5° 1010.9 hPa 8.0 m/s 0.0 mm 18.1° 1010.0 hPa 6.5 m/s
23:00 16.7° 1009.9 hPa 6.4 m/s 0.0 mm 14.2° 1008.2 hPa 3.8 m/s 4.7 mm 16.6° 1010.0 hPa 4.0 m/s 0.0 mm 17.8° 1011.1 hPa 6.9 m/s 0.0 mm 15.6° 1009.9 hPa 5.4 m/s
 05:59     21:33    Daglengte: 15:34 Vrijdag 30 Jul
02:00 16.0° 1009.4 hPa 6.2 m/s 0.0 mm 13.4° 1007.7 hPa 4.4 m/s 4.7 mm 15.6° 1009.5 hPa 3.9 m/s 0.0 mm 17.5° 1010.6 hPa 6.7 m/s 0.0 mm 14.0° 1009.0 hPa 4.5 m/s
05:00 15.2° 1008.6 hPa 5.5 m/s 0.0 mm 12.4° 1006.8 hPa 4.0 m/s 4.7 mm 15.2° 1008.7 hPa 4.0 m/s 0.0 mm 17.2° 1010.2 hPa 5.9 m/s 0.0 mm 13.2° 1008.3 hPa 4.5 m/s
08:00 15.6° 1008.5 hPa 4.5 m/s 0.0 mm 14.5° 1006.6 hPa 3.6 m/s 4.7 mm 15.7° 1008.6 hPa 3.9 m/s 0.0 mm 17.0° 1010.3 hPa 5.0 m/s 0.0 mm 14.6° 1007.5 hPa 3.9 m/s
11:00 17.3° 1007.7 hPa 4.4 m/s 0.5 mm 19.2° 1005.5 hPa 4.0 m/s 4.7 mm 17.2° 1007.9 hPa 3.0 m/s 0.5 mm 18.6° 1010.6 hPa 5.9 m/s 0.0 mm 17.2° 1006.2 hPa 5.0 m/s
14:00 20.0° 1005.9 hPa 5.5 m/s 0.5 mm 20.3° 1003.7 hPa 6.4 m/s 4.7 mm 20.9° 1005.8 hPa 4.8 m/s 0.7 mm 18.9° 1010.6 hPa 5.2 m/s 0.0 mm 17.6° 1005.1 hPa 6.2 m/s
17:00 20.1° 1002.5 hPa 4.8 m/s 0.0 mm 19.6° 1002.2 hPa 4.6 m/s 5.3 mm 21.1° 1004.2 hPa 5.6 m/s 0.1 mm 20.9° 1003.0 hPa 7.2 m/s
20:00 18.2° 1001.3 hPa 6.9 m/s 6.1 mm 18.0° 1001.1 hPa 6.6 m/s 9.8 mm 19.9° 1002.9 hPa 6.8 m/s 0.1 mm 16.3° 1002.1 hPa 10.2 m/s
23:00 17.1° 1001.6 hPa 9.4 m/s 5.8 mm 15.9° 999.5 hPa 9.1 m/s 12.9 mm 17.3° 1001.7 hPa 8.7 m/s 0.1 mm 15.4° 1002.5 hPa 9.8 m/s
 06:01     21:31    Daglengte: 15:30 Zaterdag 31 Jul
02:00 16.3° 1002.4 hPa 8.5 m/s 4.0 mm 15.7° 1002.2 hPa 6.0 m/s 15.4 mm 16.6° 1000.6 hPa 8.6 m/s 0.8 mm 15.3° 1004.3 hPa 8.0 m/s
05:00 15.8° 1003.3 hPa 6.5 m/s 4.2 mm 15.2° 1003.0 hPa 5.1 m/s 17.7 mm 16.4° 1002.5 hPa 8.4 m/s 0.7 mm 15.6° 1005.4 hPa 6.3 m/s
08:00 16.7° 1005.0 hPa 6.1 m/s 5.9 mm 16.9° 1004.0 hPa 6.0 m/s 19.6 mm 16.8° 1004.9 hPa 6.1 m/s 0.5 mm 15.9° 1005.9 hPa 7.0 m/s
11:00 18.0° 1005.9 hPa 6.8 m/s 6.9 mm 19.0° 1005.0 hPa 7.2 m/s 19.8 mm 18.0° 1005.8 hPa 6.8 m/s 0.2 mm 17.4° 1007.4 hPa 7.0 m/s
14:00 18.5° 1007.0 hPa 7.2 m/s 5.7 mm 20.5° 1006.5 hPa 7.4 m/s 20.1 mm 18.0° 1007.0 hPa 5.5 m/s 2.9 mm 20.0° 1008.0 hPa 7.6 m/s
17:00 18.5° 1007.4 hPa 5.5 m/s 8.4 mm 20.2° 1007.1 hPa 6.9 m/s 20.3 mm 18.1° 1007.5 hPa 5.2 m/s 2.5 mm 19.9° 1008.2 hPa 6.6 m/s
20:00 18.4° 1007.5 hPa 4.7 m/s 7.1 mm 19.4° 1006.8 hPa 5.1 m/s 20.6 mm 18.2° 1007.7 hPa 4.6 m/s 0.4 mm 18.3° 1008.4 hPa 4.3 m/s
23:00 15.3° 1008.6 hPa 3.9 m/s 9.7 mm 15.3° 1008.6 hPa 3.9 m/s 9.7 mm
 06:02     21:30    Daglengte: 15:28 Zondag 01 Aug
02:00 14.2° 1008.3 hPa 3.6 m/s 10.0 mm 14.1° 1008.3 hPa 3.6 m/s 10.0 mm
05:00 13.5° 1007.4 hPa 4.6 m/s 10.5 mm 13.5° 1007.4 hPa 4.6 m/s 10.5 mm
08:00 14.4° 1007.2 hPa 4.7 m/s 10.6 mm 14.4° 1007.2 hPa 4.7 m/s 10.6 mm
11:00 17.8° 1007.0 hPa 4.4 m/s 10.8 mm 17.8° 1007.0 hPa 4.4 m/s 10.8 mm
14:00 18.3° 1006.9 hPa 3.7 m/s 13.6 mm 18.3° 1006.9 hPa 3.7 m/s 13.6 mm
17:00 17.3° 1008.5 hPa 6.6 m/s 16.9 mm 17.3° 1008.5 hPa 6.6 m/s 16.9 mm
20:00 16.8° 1009.8 hPa 4.7 m/s 16.9 mm 16.8° 1009.8 hPa 4.7 m/s 16.9 mm
23:00 13.8° 1011.2 hPa 4.2 m/s 17.0 mm 13.8° 1011.2 hPa 4.2 m/s 17.0 mm
 06:04     21:28    Daglengte: 15:24 Maandag 02 Aug
02:00 12.8° 1011.9 hPa 3.7 m/s 17.0 mm 12.8° 1011.9 hPa 3.7 m/s 17.0 mm
05:00 12.7° 1012.0 hPa 3.9 m/s 17.0 mm 12.7° 1012.0 hPa 3.9 m/s 17.0 mm
08:00 14.5° 1013.0 hPa 3.8 m/s 17.3 mm 14.5° 1013.0 hPa 3.8 m/s 17.3 mm
11:00 17.5° 1013.8 hPa 4.8 m/s 17.4 mm 17.5° 1013.8 hPa 4.8 m/s 17.4 mm
14:00 18.1° 1014.7 hPa 5.1 m/s 17.4 mm 18.1° 1014.7 hPa 5.1 m/s 17.4 mm
17:00 18.5° 1014.6 hPa 4.5 m/s 17.4 mm 18.5° 1014.6 hPa 4.5 m/s 17.4 mm
20:00 16.7° 1015.0 hPa 4.3 m/s 17.5 mm 16.7° 1015.0 hPa 4.3 m/s 17.5 mm
23:00 13.4° 1016.0 hPa 3.0 m/s 17.5 mm 13.4° 1016.0 hPa 3.0 m/s 17.5 mm
 06:05     21:26    Daglengte: 15:21 Dinsdag 03 Aug
02:00 12.4° 1016.3 hPa 2.1 m/s 17.5 mm 12.4° 1016.3 hPa 2.1 m/s 17.5 mm
05:00 11.8° 1015.9 hPa 1.4 m/s 17.5 mm 11.8° 1015.9 hPa 1.4 m/s 17.5 mm
08:00 13.6° 1016.5 hPa 2.0 m/s 17.5 mm 13.6° 1016.5 hPa 2.0 m/s 17.5 mm
11:00 16.9° 1016.6 hPa 2.4 m/s 17.5 mm 16.9° 1016.6 hPa 2.4 m/s 17.5 mm
14:00 18.5° 1016.0 hPa 2.2 m/s 17.5 mm 18.5° 1016.0 hPa 2.2 m/s 17.5 mm
17:00 20.5° 1015.2 hPa 2.0 m/s 17.5 mm 20.5° 1015.2 hPa 2.0 m/s 17.5 mm
20:00 19.0° 1015.3 hPa 2.0 m/s 17.5 mm 19.0° 1015.3 hPa 2.0 m/s 17.5 mm
23:00 15.4° 1016.2 hPa 0.9 m/s 17.5 mm 15.4° 1016.2 hPa 0.9 m/s 17.5 mm
 06:07     21:24    Daglengte: 15:17 Woensdag 04 Aug
02:00 15.6° 1016.4 hPa 2.3 m/s 17.5 mm 15.6° 1016.4 hPa 2.3 m/s 17.5 mm
05:00 14.2° 1015.2 hPa 3.1 m/s 17.5 mm 14.2° 1015.2 hPa 3.1 m/s 17.5 mm
08:00 15.5° 1015.4 hPa 3.1 m/s 17.5 mm 15.5° 1015.4 hPa 3.1 m/s 17.5 mm
11:00 19.5° 1015.6 hPa 4.8 m/s 17.5 mm 19.5° 1015.6 hPa 4.8 m/s 17.5 mm
14:00 22.1° 1014.8 hPa 4.3 m/s 17.5 mm 22.1° 1014.8 hPa 4.3 m/s 17.5 mm
17:00 21.9° 1014.6 hPa 4.6 m/s 17.5 mm 21.9° 1014.6 hPa 4.6 m/s 17.5 mm
20:00 20.1° 1013.9 hPa 2.0 m/s 17.6 mm 20.1° 1013.9 hPa 2.0 m/s 17.6 mm
 06:08     21:23    Daglengte: 15:15 Donderdag 05 Aug
02:00 16.0° 1013.1 hPa 3.1 m/s 17.8 mm 16.0° 1013.1 hPa 3.1 m/s 17.8 mm
08:00 16.5° 1010.2 hPa 3.2 m/s 17.8 mm 16.5° 1010.2 hPa 3.2 m/s 17.8 mm
14:00 18.4° 1008.6 hPa 4.4 m/s 18.2 mm 18.4° 1008.6 hPa 4.4 m/s 18.2 mm
20:00 16.1° 1007.3 hPa 6.1 m/s 19.7 mm 16.1° 1007.3 hPa 6.1 m/s 19.7 mm
 06:10     21:21    Daglengte: 15:11 Vrijdag 06 Aug
02:00 14.3° 1007.1 hPa 6.2 m/s 20.0 mm 14.3° 1007.1 hPa 6.2 m/s 20.0 mm
08:00 14.2° 1007.6 hPa 5.5 m/s 20.0 mm 14.2° 1007.6 hPa 5.5 m/s 20.0 mm
14:00 19.1° 1008.9 hPa 7.8 m/s 21.5 mm 19.1° 1008.9 hPa 7.8 m/s 21.5 mm
20:00 17.9° 1009.6 hPa 6.1 m/s 22.0 mm 17.9° 1009.6 hPa 6.1 m/s 22.0 mm
 06:12     21:19    Daglengte: 15:07 Zaterdag 07 Aug
02:00 14.4° 1010.3 hPa 5.6 m/s 22.0 mm 14.4° 1010.3 hPa 5.6 m/s 22.0 mm
08:00 15.7° 1007.8 hPa 3.7 m/s 0.8 mm
14:00 19.7° 1009.8 hPa 5.1 m/s 1.6 mm
20:00 18.4° 1010.8 hPa 3.3 m/s 0.7 mm
 06:13     21:17    Daglengte: 15:04 Zondag 08 Aug
02:00 15.4° 1011.9 hPa 2.9 m/s 0.5 mm
08:00 15.6° 1012.3 hPa 3.2 m/s 0.6 mm
14:00 20.6° 1013.7 hPa 4.5 m/s 0.7 mm
20:00 18.9° 1013.7 hPa 3.2 m/s 0.5 mm
 06:15     21:15    Daglengte: 15:00 Maandag 09 Aug
02:00 15.8° 1014.1 hPa 3.8 m/s 0.6 mm
08:00 16.1° 1014.3 hPa 3.9 m/s 0.9 mm
14:00 21.0° 1015.3 hPa 5.0 m/s 0.4 mm
20:00 19.1° 1014.7 hPa 3.6 m/s 0.6 mm
 06:17     21:13    Daglengte: 14:56 Dinsdag 10 Aug
02:00 16.1° 1014.9 hPa 3.3 m/s 0.6 mm
08:00 16.1° 1015.0 hPa 3.9 m/s 0.6 mm
14:00 20.3° 1016.3 hPa 5.1 m/s 0.8 mm
20:00 18.5° 1016.4 hPa 3.6 m/s 0.7 mm
 06:18     21:11    Daglengte: 14:53 Woensdag 11 Aug
02:00 15.4° 1016.9 hPa 3.0 m/s 0.3 mm
08:00 15.7° 1017.2 hPa 3.3 m/s 0.5 mm
14:00 20.0° 1018.1 hPa 5.0 m/s 0.8 mm
20:00 17.8° 1018.1 hPa 3.8 m/s 0.4 mm
 06:20     21:09    Daglengte: 14:49 Donderdag 12 Aug
02:00 14.9° 1018.3 hPa 2.5 m/s 0.1 mm
08:00 15.5° 1017.7 hPa 2.8 m/s 0.3 mm
14:00 20.4° 1018.0 hPa 4.2 m/s 0.5 mm
FMI Hirlam - 7.5 km EWN WRFDA - 12 km DWD ICON - 7 km GFS - 25 km Basiskaart






























































Updatetijd (Europe/Amsterdam) Resolutie Lengte Stap
FMI Hirlam 13:45, 19:45, 01:45, 07:45 7.5 km 49h 1h
EWN WRFDA 16:30, 22:30, 04:30, 10:30 12 km 73h 1h
DWD ICON 18:00, 00:00, 06:00, 12:00 7 km 75h 1h
GFS 14:15, 20:15, 02:15, 08:15 25 km 237h 3h
30+ mm
25-30 mm
20-25 mm
15-20 mm
10-15 mm
6-10 mm
4-6 mm
2-4 mm
1-2 mm
0.5-1 mm
0.2-0.5 mm
0.1-0.2 mm
30+ mm
25-30 mm
20-25 mm
15-20 mm
10-15 mm
6-10 mm
4-6 mm
2-4 mm
1-2 mm
0.5-1 mm
0.2-0.5 mm
0.1-0.2 mm
Sneeuwval
Natte sneeuw
Hagel
Vorst
30+ mm
25-30 mm
20-25 mm
15-20 mm
10-15 mm
6-10 mm
4-6 mm
2-4 mm
1-2 mm
0.5-1 mm
0.2-0.5 mm
0.1-0.2 mm
Sneeuwval
Natte sneeuw
Hagel
Vorst
Onweer
50 mm
40 mm
30 mm
26 mm
22 mm
18 mm
14 mm
10 mm
9 mm
8 mm
7 mm
6 mm
5 mm
4.5 mm
4 mm
3.5 mm
3 mm
2.5 mm
2 mm
1.5 mm
1 mm
0.8 mm
0.6 mm
0.4 mm
0.2 mm
0.05 mm
35°
30°
25°
20°
15°
10°
-5°